contact:dominique.lefevre@mio.osupytheas.fr, maurice.libes@osupytheas.fr, didier.mallarino@osupytheas.fr
Project:EMSO http://www.emso-fr.org/EMSO-France
Depth: 2436.0 m
Title:EMSO Ligure Ouest : Data MII capteur AQUADOPP
Date,Latitude,Longitude,X_East,Y_North,Z_Up,Amplitude_X,Amplitude_Y,Amplitude_Z,Batterie,SoundSpeed,Heading,Pitch,Roll,Pressure,TIS,Speed,Direction
, degrees North, degrees East, m.s-1, m.s-1,m.s-1, 1, 1, 1, Volt, m.s-1, degree, degree, degree, dbar, degree_C, m.s-1, degree
2022-09-26T00:04:03,42.805,6.029,-0.003,-0.038,-0.024,100.0,101.0,100.0,13.4,1505.2,321.3,-0.8,1.8,2470.993,13.29,0.038,184.5
2022-09-26T00:07:03,42.805,6.029,-0.011,-0.026,-0.003,100.0,101.0,100.0,13.4,1505.2,319.3,-0.7,1.8,2471.027,13.29,0.028,202.9
2022-09-26T00:10:03,42.805,6.029,-0.014,-0.008,0.009,101.0,100.0,101.0,13.4,1505.2,324.3,-0.8,1.8,2470.962,13.29,0.016,240.3
2022-09-26T00:13:03,42.805,6.029,-0.04,-0.02,-0.002,101.0,100.0,101.0,13.4,1505.2,324.1,-0.8,1.8,2471.021,13.29,0.044,243.4
2022-09-26T00:16:03,42.805,6.029,-0.044,-0.036,0.009,100.0,100.0,100.0,13.4,1505.2,331.9,-0.8,1.8,2470.965,13.29,0.056,230.7
2022-09-26T00:19:03,42.805,6.029,-0.048,-0.005,0.009,102.0,100.0,100.0,13.3,1505.2,319.6,-0.7,1.8,2470.942,13.29,0.048,264.1
2022-09-26T00:22:03,42.805,6.029,-0.015,-0.027,-0.014,100.0,102.0,100.0,13.4,1505.2,329.4,-0.8,1.8,2470.952,13.29,0.03,209.1
2022-09-26T00:25:03,42.805,6.029,-0.033,-0.026,-0.013,100.0,100.0,99.0,13.4,1505.2,325.9,-0.8,1.8,2470.94,13.29,0.042,231.8
2022-09-26T00:28:03,42.805,6.029,-0.013,-0.035,-0.006,100.0,101.0,101.0,13.4,1505.2,326.4,-0.8,1.8,2470.989,13.29,0.037,200.4
2022-09-26T00:31:03,42.805,6.029,-0.017,-0.021,-0.003,99.0,101.0,100.0,13.4,1505.2,321.0,-0.8,1.9,2470.934,13.29,0.027,219.0
2022-09-26T00:34:03,42.805,6.029,-0.05,-0.01,0.007,100.0,100.0,100.0,13.4,1505.2,320.3,-0.8,1.8,2470.941,13.29,0.05,258.7
2022-09-26T00:37:03,42.805,6.029,-0.002,0.001,0.016,101.0,101.0,101.0,13.4,1505.2,331.6,-0.8,1.8,2470.948,13.29,0.002,296.6
2022-09-26T00:40:03,42.805,6.029,-0.029,-0.006,0.023,99.0,100.0,99.0,13.3,1505.2,330.5,-0.7,1.8,2470.942,13.29,0.029,258.3
2022-09-26T00:43:03,42.805,6.029,0.004,-0.043,-0.002,99.0,101.0,99.0,13.3,1505.2,328.9,-0.8,1.8,2470.928,13.29,0.043,174.7
2022-09-26T00:46:03,42.805,6.029,-0.023,-0.024,0.01,99.0,101.0,99.0,13.4,1505.2,319.0,-0.8,1.8,2470.942,13.29,0.033,223.8
2022-09-26T00:49:03,42.805,6.029,-0.04,-0.016,0.009,100.0,101.0,99.0,13.4,1505.2,327.6,-0.8,1.8,2470.951,13.29,0.043,248.2
2022-09-26T00:52:03,42.805,6.029,-0.028,-0.002,0.031,100.0,101.0,99.0,13.4,1505.2,327.0,-0.8,1.8,2470.917,13.29,0.028,265.9
2022-09-26T00:55:03,42.805,6.029,-0.009,-0.01,0.072,99.0,100.0,100.0,13.4,1505.2,320.5,-0.8,1.8,2470.932,13.29,0.013,222.0
2022-09-26T00:58:03,42.805,6.029,-0.033,0.008,0.045,101.0,99.0,99.0,13.4,1505.2,331.5,-0.8,1.8,2470.919,13.29,0.033,283.6
2022-09-26T01:04:03,42.805,6.029,-0.026,-0.033,-0.004,101.0,101.0,101.0,13.4,1505.2,331.8,-0.7,1.8,2470.943,13.29,0.042,218.2
2022-09-26T01:07:03,42.805,6.029,-0.017,-0.026,0.029,102.0,101.0,100.0,13.4,1505.2,333.1,-0.7,1.8,2470.925,13.29,0.031,213.2
2022-09-26T01:10:03,42.805,6.029,-0.033,0.009,0.018,99.0,100.0,99.0,13.4,1505.2,320.2,-0.8,1.8,2470.942,13.29,0.034,285.3
2022-09-26T01:13:03,42.805,6.029,-0.017,-0.014,0.04,99.0,100.0,100.0,13.4,1505.2,333.1,-0.7,1.8,2470.948,13.29,0.022,230.5
2022-09-26T01:16:03,42.805,6.029,0.004,-0.017,0.028,101.0,101.0,99.0,13.4,1505.2,325.1,-0.8,1.9,2470.92,13.29,0.017,166.8
2022-09-26T01:19:03,42.805,6.029,-0.004,-0.028,0.009,100.0,100.0,100.0,13.4,1505.2,320.5,-0.8,1.8,2470.933,13.29,0.028,188.1
2022-09-26T01:22:03,42.805,6.029,-0.026,-0.014,0.004,100.0,102.0,99.0,13.4,1505.2,330.9,-0.8,1.8,2470.902,13.29,0.029,241.7
2022-09-26T01:25:03,42.805,6.029,-0.033,-0.008,0.037,101.0,101.0,98.0,13.4,1505.2,322.2,-0.8,1.8,2470.93,13.29,0.033,256.4
2022-09-26T01:28:03,42.805,6.029,-0.023,-0.018,-0.017,99.0,102.0,99.0,13.4,1505.2,321.9,-0.8,1.8,2470.917,13.29,0.029,232.0
2022-09-26T01:31:03,42.805,6.029,-0.011,-0.012,0.027,98.0,101.0,101.0,13.3,1505.2,321.6,-0.8,1.8,2470.952,13.29,0.016,222.5
2022-09-26T01:34:03,42.805,6.029,-0.013,-0.017,0.002,101.0,100.0,98.0,13.3,1505.2,322.5,-0.8,1.8,2470.943,13.29,0.021,217.4
2022-09-26T01:37:03,42.805,6.029,-0.039,-0.007,0.016,101.0,100.0,100.0,13.4,1505.2,316.6,-0.7,1.8,2470.912,13.29,0.039,259.8
2022-09-26T01:40:03,42.805,6.029,-0.031,-0.026,-0.025,99.0,100.0,99.0,13.3,1505.2,321.3,-0.8,1.8,2470.956,13.29,0.04,230.0
2022-09-26T01:43:03,42.805,6.029,-0.022,-0.018,0.023,100.0,100.0,99.0,13.3,1505.2,333.4,-0.7,1.8,2470.922,13.29,0.028,230.7
2022-09-26T01:46:03,42.805,6.029,-0.016,-0.012,0.012,100.0,101.0,99.0,13.4,1505.2,318.7,-0.8,1.8,2470.909,13.29,0.02,233.1
2022-09-26T01:49:03,42.805,6.029,-0.03,-0.008,0.018,103.0,100.0,99.0,13.3,1505.2,329.4,-0.8,1.8,2470.919,13.29,0.031,255.1
2022-09-26T01:52:03,42.805,6.029,0.006,-0.026,0.039,99.0,100.0,99.0,13.4,1505.2,327.9,-0.8,1.8,2470.912,13.29,0.026,167.0
2022-09-26T01:55:03,42.805,6.029,-0.04,-0.013,-0.008,99.0,102.0,99.0,13.4,1505.2,325.3,-0.8,1.8,2470.924,13.29,0.042,252.0
2022-09-26T01:58:03,42.805,6.029,-0.008,-0.021,0.011,99.0,100.0,99.0,13.4,1505.2,321.6,-0.7,1.8,2470.942,13.29,0.022,200.9
2022-09-26T02:04:03,42.805,6.029,-0.009,-0.015,0.031,100.0,101.0,100.0,13.4,1505.2,331.2,-0.7,1.8,2470.94,13.29,0.017,211.0
2022-09-26T02:07:03,42.805,6.029,-0.034,0.003,0.016,99.0,100.0,100.0,13.4,1505.2,331.1,-0.7,1.8,2470.93,13.29,0.034,275.0
2022-09-26T02:10:03,42.805,6.029,-0.004,-0.032,0.001,99.0,100.0,99.0,13.4,1505.2,324.1,-0.8,1.8,2470.95,13.29,0.032,187.1
2022-09-26T02:13:03,42.805,6.029,-0.021,-0.015,0.026,100.0,100.0,99.0,13.4,1505.2,321.0,-0.8,1.8,2470.933,13.29,0.025,234.5
2022-09-26T02:16:03,42.805,6.029,-0.018,-0.014,0.003,100.0,100.0,100.0,13.4,1505.2,322.6,-0.7,1.8,2470.91,13.29,0.022,232.1
2022-09-26T02:19:03,42.805,6.029,-0.031,-0.02,0.027,100.0,101.0,99.0,13.4,1505.2,326.4,-0.8,1.8,2470.934,13.29,0.036,237.2
2022-09-26T02:22:03,42.805,6.029,-0.012,-0.031,-0.011,100.0,101.0,100.0,13.4,1505.2,318.0,-0.8,1.8,2470.93,13.29,0.033,201.2
2022-09-26T02:25:03,42.805,6.029,-0.038,-0.016,-0.03,99.0,101.0,100.0,13.4,1505.2,330.9,-0.8,1.8,2470.904,13.29,0.041,247.2
2022-09-26T02:28:03,42.805,6.029,-0.02,-0.035,-0.033,100.0,101.0,100.0,13.3,1505.2,322.0,-0.8,1.8,2470.902,13.29,0.04,209.7
2022-09-26T02:31:03,42.805,6.029,-0.002,-0.026,-0.032,100.0,102.0,99.0,13.4,1505.2,319.0,-0.7,1.8,2470.908,13.29,0.026,184.4
2022-09-26T02:34:03,42.805,6.029,-0.026,-0.018,-0.008,100.0,100.0,100.0,13.4,1505.2,335.1,-0.7,1.8,2470.94,13.29,0.031,235.3
2022-09-26T02:37:03,42.805,6.029,-0.017,-0.037,-0.022,99.0,101.0,99.0,13.4,1505.2,317.8,-0.8,1.8,2470.919,13.29,0.04,204.7
2022-09-26T02:40:03,42.805,6.029,-0.031,-0.004,0.036,100.0,101.0,99.0,13.4,1505.2,333.4,-0.8,1.8,2470.896,13.29,0.031,262.7
2022-09-26T02:43:03,42.805,6.029,0.012,-0.013,0.022,100.0,100.0,101.0,13.3,1505.2,325.5,-0.8,1.8,2470.949,13.29,0.017,137.3
2022-09-26T02:46:03,42.805,6.029,-0.046,-0.004,-0.011,101.0,100.0,100.0,13.4,1505.2,329.9,-0.8,1.8,2470.893,13.29,0.046,265.0
2022-09-26T02:49:03,42.805,6.029,-0.029,-0.016,0.037,99.0,102.0,98.0,13.4,1505.2,320.6,-0.7,1.8,2470.892,13.29,0.033,241.1
2022-09-26T02:52:03,42.805,6.029,-0.014,-0.028,0.023,100.0,101.0,100.0,13.4,1505.2,327.6,-0.7,1.8,2470.879,13.29,0.031,206.6
2022-09-26T02:55:03,42.805,6.029,-0.025,0.001,0.034,100.0,101.0,102.0,13.4,1505.2,329.3,-0.8,1.8,2470.935,13.29,0.025,272.3
2022-09-26T02:58:03,42.805,6.029,-0.03,-0.016,0.02,100.0,102.0,99.0,13.4,1505.2,325.6,-0.8,1.8,2470.893,13.29,0.034,241.9
2022-09-26T03:04:03,42.805,6.029,-0.025,-0.019,-0.014,100.0,100.0,99.0,13.3,1505.2,318.2,-0.8,1.8,2470.925,13.29,0.031,232.8
2022-09-26T03:07:03,42.805,6.029,-0.03,-0.032,0.004,99.0,100.0,100.0,13.4,1505.2,319.2,-0.7,1.9,2470.971,13.29,0.043,223.1
2022-09-26T03:10:03,42.805,6.029,-0.017,-0.024,-0.006,100.0,101.0,99.0,13.4,1505.2,328.3,-0.8,1.8,2470.918,13.29,0.029,215.3
2022-09-26T03:13:03,42.805,6.029,-0.013,-0.018,0.028,101.0,101.0,99.0,13.4,1505.2,323.1,-0.7,1.8,2470.949,13.29,0.022,215.8
2022-09-26T03:16:03,42.805,6.029,-0.03,0.0,0.008,101.0,100.0,100.0,13.3,1505.2,321.4,-0.8,1.8,2470.952,13.29,0.03,270.0
2022-09-26T03:19:03,42.805,6.029,-0.034,-0.008,0.033,99.0,100.0,99.0,13.4,1505.2,327.4,-0.8,1.8,2470.982,13.29,0.034,256.8
2022-09-26T03:22:03,42.805,6.029,-0.025,-0.016,-0.001,101.0,100.0,99.0,13.4,1505.2,321.6,-0.8,1.8,2470.923,13.29,0.029,237.4
2022-09-26T03:25:03,42.805,6.029,-0.034,-0.032,0.012,101.0,100.0,99.0,13.4,1505.2,317.4,-0.7,1.8,2470.938,13.29,0.046,226.7
2022-09-26T03:28:03,42.805,6.029,-0.018,-0.016,-0.014,101.0,99.0,99.0,13.4,1505.2,330.3,-0.8,1.8,2470.918,13.29,0.024,228.4
2022-09-26T03:31:03,42.805,6.029,-0.035,-0.013,-0.011,101.0,100.0,100.0,13.4,1505.2,324.6,-0.8,1.8,2470.889,13.29,0.037,249.6
2022-09-26T03:34:03,42.805,6.029,-0.028,-0.018,-0.004,99.0,100.0,100.0,13.4,1505.2,333.7,-0.7,1.8,2470.941,13.29,0.033,237.3
2022-09-26T03:37:03,42.805,6.029,-0.004,-0.004,0.022,100.0,102.0,99.0,13.3,1505.2,326.3,-0.7,1.8,2470.937,13.29,0.005,225.0
2022-09-26T03:40:03,42.805,6.029,0.0,-0.035,0.007,101.0,102.0,99.0,13.4,1505.2,333.7,-0.8,1.8,2470.887,13.29,0.035,180.0
2022-09-26T03:43:03,42.805,6.029,-0.025,-0.027,0.009,100.0,101.0,100.0,13.4,1505.2,324.7,-0.8,1.8,2470.958,13.29,0.036,222.8
2022-09-26T03:46:03,42.805,6.029,-0.024,0.006,0.061,99.0,103.0,100.0,13.3,1505.2,320.9,-0.8,1.8,2470.992,13.29,0.024,284.0
2022-09-26T03:49:03,42.805,6.029,-0.012,-0.005,0.045,99.0,101.0,100.0,13.4,1505.2,331.2,-0.8,1.8,2470.921,13.29,0.013,247.4
2022-09-26T03:52:03,42.805,6.029,-0.01,-0.008,0.032,99.0,101.0,100.0,13.4,1505.2,333.4,-0.7,1.8,2470.962,13.29,0.012,231.3
2022-09-26T03:55:03,42.805,6.029,-0.008,-0.012,0.028,100.0,101.0,99.0,13.3,1505.2,326.3,-0.8,1.8,2470.955,13.29,0.014,213.7
2022-09-26T03:58:03,42.805,6.029,-0.009,0.001,0.017,100.0,101.0,99.0,13.3,1505.2,331.1,-0.8,1.8,2470.933,13.29,0.009,276.3
2022-09-26T04:04:03,42.805,6.029,-0.031,-0.028,0.002,100.0,101.0,100.0,13.3,1505.2,323.1,-0.8,1.8,2470.995,13.29,0.041,227.9
2022-09-26T04:07:03,42.805,6.029,0.009,-0.039,0.006,101.0,100.0,99.0,13.4,1505.2,323.2,-0.8,1.8,2471.022,13.29,0.04,167.0
2022-09-26T04:10:03,42.805,6.029,-0.013,-0.018,0.013,100.0,100.0,100.0,13.3,1505.2,321.8,-0.7,1.8,2471.004,13.29,0.022,215.8
2022-09-26T04:13:03,42.805,6.029,-0.03,-0.024,0.018,100.0,101.0,100.0,13.4,1505.2,323.3,-0.8,1.8,2470.954,13.29,0.038,231.3
2022-09-26T04:16:03,42.805,6.029,-0.032,0.002,0.031,99.0,100.0,99.0,13.4,1505.2,328.9,-0.8,1.8,2470.99,13.29,0.032,273.6
2022-09-26T04:19:03,42.805,6.029,-0.001,-0.038,-0.004,100.0,100.0,100.0,13.3,1505.2,326.1,-0.8,1.9,2470.988,13.29,0.038,181.5
2022-09-26T04:22:03,42.805,6.029,-0.017,-0.012,-0.006,101.0,101.0,100.0,13.3,1505.2,327.8,-0.8,1.8,2470.945,13.29,0.02,234.8
2022-09-26T04:25:03,42.805,6.029,-0.015,-0.014,0.02,99.0,100.0,99.0,13.4,1505.2,321.8,-0.7,1.8,2470.988,13.29,0.02,227.0
2022-09-26T04:28:03,42.805,6.029,-0.022,-0.024,-0.009,102.0,100.0,100.0,13.4,1505.2,318.1,-0.8,1.8,2470.941,13.29,0.032,222.5
2022-09-26T04:31:03,42.805,6.029,-0.037,-0.015,0.002,101.0,100.0,100.0,13.3,1505.2,329.4,-0.7,1.8,2471.013,13.29,0.039,247.9
2022-09-26T04:34:03,42.805,6.029,-0.012,-0.017,0.002,103.0,100.0,100.0,13.4,1505.2,320.3,-0.8,1.8,2470.991,13.29,0.02,215.2
2022-09-26T04:37:03,42.805,6.029,-0.04,0.017,0.033,100.0,100.0,99.0,13.4,1505.2,329.2,-0.7,1.8,2470.989,13.29,0.043,293.0
2022-09-26T04:40:03,42.805,6.029,-0.006,-0.026,0.01,100.0,101.0,99.0,13.4,1505.2,325.9,-0.8,1.8,2470.966,13.29,0.026,193.0
2022-09-26T04:43:03,42.805,6.029,-0.02,-0.028,0.012,100.0,100.0,100.0,13.3,1505.2,324.6,-0.8,1.8,2471.02,13.29,0.034,215.5
2022-09-26T04:46:03,42.805,6.029,-0.004,-0.013,0.049,101.0,101.0,99.0,13.4,1505.2,330.2,-0.8,1.8,2471.005,13.29,0.013,197.1
2022-09-26T04:49:03,42.805,6.029,-0.037,-0.025,-0.022,101.0,101.0,100.0,13.4,1505.2,322.4,-0.8,1.8,2471.01,13.29,0.044,236.0
2022-09-26T04:52:03,42.805,6.029,-0.01,-0.013,-0.027,100.0,101.0,100.0,13.3,1505.2,316.6,-0.8,1.7,2471.032,13.29,0.016,217.6
2022-09-26T04:55:03,42.805,6.029,-0.009,-0.017,0.002,101.0,99.0,100.0,13.4,1505.2,322.8,-0.7,1.8,2470.974,13.29,0.019,207.9
2022-09-26T04:58:03,42.805,6.029,-0.024,0.006,0.013,99.0,102.0,99.0,13.4,1505.2,333.1,-0.8,1.8,2471.007,13.29,0.024,284.0
2022-09-26T05:04:03,42.805,6.029,-0.01,0.0,0.027,100.0,100.0,99.0,13.3,1505.2,320.9,-0.7,1.8,2471.037,13.29,0.01,270.0
2022-09-26T05:07:03,42.805,6.029,-0.029,0.015,0.044,100.0,100.0,100.0,13.4,1505.2,319.8,-0.8,1.8,2471.079,13.29,0.032,297.4
2022-09-26T05:10:03,42.805,6.029,-0.005,-0.027,-0.003,99.0,100.0,99.0,13.4,1505.2,319.2,-0.7,1.8,2471.037,13.29,0.027,190.5
2022-09-26T05:13:03,42.805,6.029,-0.003,0.002,0.065,101.0,100.0,99.0,13.3,1505.2,329.8,-0.8,1.8,2471.028,13.29,0.003,303.7
2022-09-26T05:16:03,42.805,6.029,-0.017,-0.01,0.045,101.0,101.0,100.0,13.3,1505.2,328.5,-0.8,1.8,2471.044,13.29,0.019,239.5
2022-09-26T05:19:03,42.805,6.029,-0.016,-0.035,0.016,102.0,100.0,99.0,13.4,1505.2,325.1,-0.8,1.8,2471.041,13.29,0.038,204.6
2022-09-26T05:22:03,42.805,6.029,-0.016,-0.041,-0.008,98.0,99.0,101.0,13.4,1505.2,328.1,-0.7,1.8,2471.027,13.29,0.044,201.3
2022-09-26T05:25:03,42.805,6.029,-0.011,-0.022,-0.017,100.0,100.0,100.0,13.4,1505.2,319.8,-0.8,1.8,2471.026,13.29,0.024,206.6
2022-09-26T05:28:03,42.805,6.029,-0.011,-0.021,0.007,99.0,100.0,100.0,13.4,1505.2,333.4,-0.7,1.9,2471.049,13.29,0.023,207.6
2022-09-26T05:31:03,42.805,6.029,-0.034,0.004,0.03,101.0,102.0,99.0,13.4,1505.2,332.1,-0.8,1.8,2471.035,13.29,0.034,276.7
2022-09-26T05:34:03,42.805,6.029,-0.017,-0.035,-0.011,100.0,100.0,99.0,13.3,1505.2,331.1,-0.8,1.9,2471.028,13.29,0.038,205.9
2022-09-26T05:37:03,42.805,6.029,-0.032,-0.003,0.01,100.0,100.0,100.0,13.3,1505.2,331.8,-0.7,1.8,2471.018,13.29,0.032,264.6
2022-09-26T05:40:03,42.805,6.029,-0.035,-0.016,0.003,99.0,99.0,101.0,13.3,1505.2,322.6,-0.8,1.8,2471.047,13.29,0.038,245.4
2022-09-26T05:43:03,42.805,6.029,-0.031,-0.008,0.022,100.0,99.0,100.0,13.4,1505.2,325.7,-0.7,1.8,2471.025,13.29,0.032,255.5
2022-09-26T05:46:03,42.805,6.029,-0.017,-0.028,0.036,100.0,102.0,99.0,13.4,1505.2,322.0,-0.7,1.8,2471.087,13.29,0.032,211.3
2022-09-26T05:49:03,42.805,6.029,-0.022,0.0,-0.009,99.0,102.0,100.0,13.3,1505.2,323.6,-0.8,1.8,2471.067,13.29,0.022,270.0
2022-09-26T05:52:03,42.805,6.029,-0.014,0.004,0.039,101.0,100.0,99.0,13.3,1505.2,330.3,-0.8,1.8,2471.084,13.29,0.014,285.9
2022-09-26T05:55:03,42.805,6.029,-0.02,-0.014,-0.013,98.0,102.0,101.0,13.4,1505.2,322.2,-0.7,1.8,2471.073,13.29,0.024,235.0
2022-09-26T05:58:03,42.805,6.029,0.0,-0.034,-0.01,100.0,100.0,100.0,13.4,1505.2,320.9,-0.8,1.8,2471.056,13.29,0.034,180.0
2022-09-26T06:04:03,42.805,6.029,-0.03,-0.004,0.004,101.0,101.0,100.0,13.3,1505.2,321.4,-0.8,1.9,2471.111,13.29,0.03,262.4
2022-09-26T06:07:03,42.805,6.029,-0.015,-0.021,-0.019,103.0,100.0,100.0,13.4,1505.2,321.7,-0.8,1.9,2471.11,13.29,0.025,215.5
2022-09-26T06:10:03,42.805,6.029,-0.025,-0.029,0.0,101.0,100.0,99.0,13.4,1505.2,323.2,-0.8,1.8,2471.113,13.29,0.038,220.8
2022-09-26T06:13:03,42.805,6.029,-0.033,-0.017,-0.017,101.0,100.0,99.0,13.4,1505.2,328.4,-0.8,1.8,2471.112,13.29,0.037,242.7
2022-09-26T06:16:03,42.805,6.029,-0.031,-0.009,0.001,102.0,101.0,100.0,13.4,1505.2,323.9,-0.7,1.8,2471.086,13.29,0.032,253.8
2022-09-26T06:19:03,42.805,6.029,-0.013,-0.021,-0.016,101.0,100.0,99.0,13.3,1505.2,328.1,-0.8,1.8,2471.075,13.29,0.024,211.8
2022-09-26T06:22:03,42.805,6.029,0.005,-0.033,-0.005,101.0,101.0,99.0,13.4,1505.2,321.2,-0.8,1.8,2471.09,13.29,0.033,171.4
2022-09-26T06:25:03,42.805,6.029,-0.022,-0.011,0.05,100.0,100.0,98.0,13.3,1505.2,320.1,-0.7,1.8,2471.062,13.29,0.024,243.4
2022-09-26T06:28:03,42.805,6.029,-0.008,-0.025,0.013,99.0,99.0,100.0,13.4,1505.2,324.4,-0.7,1.8,2471.067,13.29,0.026,197.7
2022-09-26T06:31:03,42.805,6.029,-0.034,-0.003,0.005,100.0,102.0,98.0,13.4,1505.2,320.7,-0.8,1.8,2471.079,13.29,0.034,265.0
2022-09-26T06:34:03,42.805,6.029,-0.009,-0.032,0.002,99.0,99.0,100.0,13.4,1505.2,327.7,-0.8,1.8,2471.101,13.29,0.033,195.7
2022-09-26T06:37:03,42.805,6.029,-0.03,0.001,0.03,100.0,101.0,100.0,13.3,1505.2,325.9,-0.8,1.8,2471.066,13.29,0.03,271.9
2022-09-26T06:40:03,42.805,6.029,-0.009,-0.015,0.005,100.0,101.0,99.0,13.4,1505.2,322.2,-0.8,1.8,2471.12,13.29,0.017,211.0
2022-09-26T06:43:03,42.805,6.029,-0.037,-0.03,-0.012,100.0,102.0,99.0,13.4,1505.2,330.4,-0.8,1.8,2471.083,13.29,0.047,231.0
2022-09-26T06:46:03,42.805,6.029,-0.024,-0.002,0.014,100.0,99.0,100.0,13.3,1505.2,330.6,-0.7,1.8,2471.086,13.29,0.024,265.2
2022-09-26T06:49:03,42.805,6.029,-0.01,-0.017,0.003,101.0,100.0,99.0,13.4,1505.2,320.6,-0.7,1.8,2471.079,13.29,0.019,210.5
2022-09-26T06:52:03,42.805,6.029,-0.031,-0.003,0.024,100.0,100.0,99.0,13.4,1505.2,322.7,-0.7,1.8,2471.079,13.29,0.031,264.5
2022-09-26T06:55:03,42.805,6.029,-0.001,-0.04,-0.04,100.0,100.0,100.0,13.4,1505.2,316.6,-0.7,1.8,2471.076,13.29,0.04,181.4
2022-09-26T06:58:03,42.805,6.029,-0.023,-0.01,0.051,103.0,100.0,100.0,13.4,1505.2,322.7,-0.8,1.8,2471.095,13.29,0.025,246.5
2022-09-26T07:04:03,42.805,6.029,-0.005,-0.026,0.034,100.0,101.0,99.0,13.4,1505.2,320.6,-0.8,1.9,2471.12,13.29,0.026,190.9
2022-09-26T07:07:03,42.805,6.029,-0.013,-0.015,0.013,100.0,100.0,99.0,13.4,1505.2,327.5,-0.7,1.8,2471.134,13.29,0.019,220.9
2022-09-26T07:10:03,42.805,6.029,-0.013,-0.04,-0.025,101.0,100.0,100.0,13.4,1505.2,317.4,-0.8,1.8,2471.096,13.29,0.042,198.0
2022-09-26T07:13:03,42.805,6.029,-0.024,-0.011,0.017,100.0,100.0,99.0,13.4,1505.2,324.2,-0.7,1.8,2471.132,13.29,0.026,245.4
2022-09-26T07:16:03,42.805,6.029,-0.011,-0.029,-0.007,100.0,100.0,100.0,13.4,1505.2,317.9,-0.8,1.8,2471.12,13.29,0.031,200.8
2022-09-26T07:19:03,42.805,6.029,0.007,-0.019,0.015,100.0,100.0,99.0,13.3,1505.2,331.5,-0.7,1.8,2471.099,13.29,0.02,159.8
2022-09-26T07:22:03,42.805,6.029,-0.029,-0.026,-0.019,99.0,100.0,100.0,13.3,1505.2,328.5,-0.7,1.8,2471.082,13.29,0.038,228.1
2022-09-26T07:25:03,42.805,6.029,-0.039,-0.035,-0.001,100.0,101.0,99.0,13.4,1505.2,332.5,-0.7,1.8,2471.065,13.29,0.052,228.1
2022-09-26T07:28:03,42.805,6.029,-0.004,-0.03,0.0,100.0,100.0,100.0,13.4,1505.2,321.7,-0.8,1.8,2471.105,13.29,0.03,187.6
2022-09-26T07:31:03,42.805,6.029,-0.021,-0.009,0.04,99.0,100.0,99.0,13.4,1505.2,322.5,-0.7,1.8,2471.093,13.29,0.022,246.8
2022-09-26T07:34:03,42.805,6.029,-0.019,-0.013,0.034,100.0,100.0,100.0,13.4,1505.2,329.4,-0.8,1.8,2471.078,13.29,0.023,235.6
2022-09-26T07:37:03,42.805,6.029,0.012,-0.039,0.009,99.0,100.0,100.0,13.3,1505.2,327.8,-0.7,1.8,2471.06,13.29,0.04,162.9
2022-09-26T07:40:03,42.805,6.029,-0.018,-0.008,0.0,100.0,101.0,99.0,13.4,1505.2,333.7,-0.7,1.8,2471.064,13.29,0.019,246.0
2022-09-26T07:43:03,42.805,6.029,-0.032,-0.011,0.031,101.0,100.0,99.0,13.4,1505.2,329.9,-0.8,1.9,2471.106,13.29,0.033,251.0
2022-09-26T07:46:03,42.805,6.029,0.004,-0.029,0.01,100.0,100.0,99.0,13.4,1505.2,322.7,-0.7,1.8,2471.04,13.29,0.029,172.2
2022-09-26T07:49:03,42.805,6.029,-0.019,-0.014,-0.002,100.0,101.0,100.0,13.4,1505.2,321.0,-0.8,1.8,2471.108,13.29,0.023,233.6
2022-09-26T07:52:03,42.805,6.029,-0.027,-0.005,0.019,100.0,100.0,100.0,13.4,1505.2,322.8,-0.7,1.8,2471.076,13.29,0.027,259.5
2022-09-26T07:55:03,42.805,6.029,-0.042,-0.01,0.005,101.0,102.0,99.0,13.3,1505.2,324.5,-0.7,1.8,2471.1,13.29,0.043,256.6
2022-09-26T07:58:03,42.805,6.029,-0.023,-0.021,-0.024,99.0,100.0,99.0,13.3,1505.2,323.5,-0.8,1.8,2471.098,13.29,0.031,227.6
2022-09-26T08:04:03,42.805,6.029,-0.044,-0.004,0.016,101.0,100.0,99.0,13.3,1505.2,329.3,-0.8,1.8,2471.12,13.29,0.044,264.8
2022-09-26T08:07:03,42.805,6.029,-0.002,-0.016,0.023,100.0,100.0,100.0,13.4,1505.2,334.0,-0.7,1.8,2471.105,13.29,0.016,187.1
2022-09-26T08:10:03,42.805,6.029,-0.017,-0.016,-0.029,100.0,101.0,100.0,13.4,1505.2,322.6,-0.7,1.8,2471.123,13.29,0.023,226.7
2022-09-26T08:13:03,42.805,6.029,0.02,0.0,0.052,100.0,103.0,100.0,13.4,1505.2,327.9,-0.7,1.8,2471.111,13.29,0.02,90.0
2022-09-26T08:16:03,42.805,6.029,-0.024,-0.008,0.072,100.0,101.0,99.0,13.4,1505.2,320.9,-0.8,1.8,2471.093,13.29,0.025,251.6
2022-09-26T08:19:03,42.805,6.029,-0.007,-0.032,0.025,100.0,100.0,99.0,13.4,1505.2,322.6,-0.8,1.8,2471.088,13.29,0.032,192.3
2022-09-26T08:22:03,42.805,6.029,-0.003,-0.02,0.02,100.0,102.0,99.0,13.4,1505.2,331.4,-0.7,1.8,2471.108,13.29,0.02,188.5
2022-09-26T08:25:03,42.805,6.029,0.0,-0.025,-0.009,99.0,100.0,100.0,13.4,1505.2,319.0,-0.8,1.8,2471.066,13.29,0.025,180.0
2022-09-26T08:28:03,42.805,6.029,-0.039,-0.006,0.025,99.0,100.0,100.0,13.3,1505.2,319.9,-0.8,1.9,2471.091,13.29,0.039,261.3
2022-09-26T08:31:03,42.805,6.029,0.0,-0.012,0.014,102.0,101.0,100.0,13.4,1505.2,328.5,-0.8,1.8,2471.076,13.29,0.012,180.0
2022-09-26T08:34:03,42.805,6.029,-0.012,-0.026,0.009,100.0,101.0,99.0,13.3,1505.2,319.4,-0.7,1.8,2471.086,13.29,0.028,204.8
2022-09-26T08:37:03,42.805,6.029,-0.001,-0.037,0.013,101.0,100.0,99.0,13.4,1505.2,321.8,-0.7,1.8,2471.074,13.29,0.037,181.5
2022-09-26T08:40:03,42.805,6.029,0.003,-0.035,-0.012,100.0,100.0,100.0,13.4,1505.2,325.3,-0.8,1.8,2471.068,13.29,0.035,175.1
2022-09-26T08:43:03,42.805,6.029,-0.009,-0.008,0.024,100.0,100.0,100.0,13.3,1505.2,327.0,-0.8,1.8,2471.021,13.29,0.012,228.4
2022-09-26T08:46:03,42.805,6.029,-0.007,-0.007,0.028,101.0,101.0,99.0,13.4,1505.2,327.7,-0.8,1.8,2471.049,13.29,0.009,225.0
2022-09-26T08:49:03,42.805,6.029,-0.007,-0.027,0.007,103.0,100.0,99.0,13.3,1505.2,319.3,-0.7,1.9,2471.068,13.29,0.027,194.5
2022-09-26T08:52:03,42.805,6.029,-0.056,-0.015,-0.027,99.0,100.0,100.0,13.4,1505.2,331.2,-0.7,1.8,2471.11,13.29,0.057,255.0
2022-09-26T08:55:03,42.805,6.029,-0.026,-0.025,0.012,99.0,100.0,100.0,13.4,1505.2,322.6,-0.8,1.8,2471.099,13.29,0.036,226.1
2022-09-26T08:58:03,42.805,6.029,-0.016,-0.021,0.037,100.0,101.0,99.0,13.4,1505.2,331.4,-0.8,1.8,2471.071,13.29,0.026,217.3
2022-09-26T09:04:03,42.805,6.029,-0.003,-0.012,0.023,102.0,100.0,99.0,13.4,1505.2,323.1,-0.7,1.8,2471.124,13.29,0.012,194.0
2022-09-26T09:07:03,42.805,6.029,-0.038,0.001,0.029,101.0,103.0,99.0,13.4,1505.2,327.9,-0.8,1.8,2471.039,13.29,0.038,271.5
2022-09-26T09:10:03,42.805,6.029,-0.014,-0.022,-0.011,102.0,101.0,100.0,13.4,1505.2,318.2,-0.8,1.8,2471.067,13.29,0.026,212.5
2022-09-26T09:13:03,42.805,6.029,-0.021,-0.004,0.016,99.0,100.0,99.0,13.3,1505.2,322.1,-0.7,1.8,2471.06,13.29,0.021,259.2
2022-09-26T09:16:03,42.805,6.029,-0.015,-0.034,-0.009,101.0,100.0,99.0,13.4,1505.2,322.4,-0.7,1.8,2471.045,13.29,0.037,203.8
2022-09-26T09:19:03,42.805,6.029,-0.002,-0.027,-0.032,100.0,100.0,100.0,13.4,1505.2,324.7,-0.8,1.8,2471.018,13.29,0.027,184.2
2022-09-26T09:22:03,42.805,6.029,-0.018,-0.015,0.037,100.0,100.0,99.0,13.4,1505.2,320.3,-0.8,1.9,2471.05,13.29,0.023,230.2
2022-09-26T09:25:03,42.805,6.029,-0.022,-0.012,0.004,102.0,100.0,100.0,13.3,1505.2,323.1,-0.8,1.8,2471.045,13.29,0.025,241.4
2022-09-26T09:28:03,42.805,6.029,-0.035,0.002,0.011,99.0,100.0,99.0,13.3,1505.2,323.9,-0.8,1.8,2471.058,13.29,0.035,273.3
2022-09-26T09:31:03,42.805,6.029,-0.008,-0.017,0.006,100.0,100.0,100.0,13.4,1505.2,326.3,-0.7,1.9,2471.039,13.29,0.018,205.2
2022-09-26T09:34:03,42.805,6.029,-0.009,-0.016,0.027,100.0,101.0,100.0,13.3,1505.2,329.8,-0.7,1.8,2471.019,13.29,0.018,209.4
2022-09-26T09:37:03,42.805,6.029,-0.017,-0.021,0.037,100.0,101.0,99.0,13.3,1505.2,318.1,-0.7,1.8,2471.018,13.29,0.027,219.0
2022-09-26T09:40:03,42.805,6.029,-0.034,-0.011,0.008,99.0,103.0,99.0,13.4,1505.2,327.0,-0.7,1.8,2471.032,13.29,0.035,252.1
2022-09-26T09:43:03,42.805,6.029,-0.014,-0.014,-0.011,100.0,100.0,100.0,13.4,1505.2,329.8,-0.7,1.8,2471.036,13.29,0.019,225.0
2022-09-26T09:46:03,42.805,6.029,-0.026,-0.015,0.028,100.0,100.0,100.0,13.4,1505.2,321.1,-0.7,1.8,2471.033,13.29,0.03,240.0
2022-09-26T09:49:03,42.805,6.029,-0.053,-0.016,0.027,106.0,100.0,100.0,13.4,1505.2,321.5,-0.8,1.8,2471.033,13.29,0.055,253.2
2022-09-26T09:52:03,42.805,6.029,-0.001,-0.026,-0.011,100.0,101.0,99.0,13.3,1505.2,326.4,-0.7,1.8,2471.008,13.29,0.026,182.2
2022-09-26T09:55:03,42.805,6.029,-0.036,-0.001,0.008,100.0,101.0,99.0,13.4,1505.2,329.5,-0.8,1.8,2471.024,13.29,0.036,268.4
2022-09-26T09:58:03,42.805,6.029,0.006,-0.02,0.004,100.0,101.0,100.0,13.4,1505.2,317.0,-0.8,1.8,2471.05,13.29,0.02,163.3